Погода в Шопино

Россия / Калужская область     54°29′40″N   36°09′30″E
темп.,
°C
ветер,
м/с
пор.,
м/с
влажн.,
%
обл.,
%
осадки,
мм/ч
давл.,
гПа
погр.,
м
7 мая, пт
пт700:00+6зюз31095100 0.0 1009320
03:00+4зюз3893100 0.0 1010191
06:00+4зюз3990100 0.0 1011292
09:00+9з47643 0.0 1012819
12:00+12зюз47425 0.0 10122225
15:00+14юз583686 0.0 10122534
18:00+13ю3650100 0.0 10111218
21:00+8ююв31171100 0.0 1012267
8 мая, сб
сб800:00+9ююв41371100 0.1 1011496
03:00+8ююв61491100 3.4 10091036
06:00+8ююв61495100 7.3 1006721
09:00+8ююв51296100 13.1 1005847
12:00+8ююв3998100 4.4 1004597
15:00+9зюз1298100 6.3 1003206
18:00+10сз239192 0.1 1003370
21:00+8ссз0097100 0.4 100311
9 мая, вс
вс900:00+8с1399100 5.1 1003251
03:00+4ссз81497100 8.4 1005877
06:00+3сз81698100 7.3 1009984
09:00+5ссз8149189 10.9 10131180
12:00+8сз7117996 0.3 10161437
15:00+11ссз695384 0.4 10172269
18:00+11сз595961 0.0 10191309
21:00+5сз357831 0.1 102377
10 мая, пн
пн1000:00+3сз35825 0.0 102582
03:00+2ссз25835 0.0 102796
06:00+3с268033 0.0 1029133
09:00+10с355667 0.0 1029520
12:00+14с46435 0.0 10291340
15:00+15с45405 0.0 10281600
18:00+14ссв36530 0.0 1028604
21:00+8всв22710 0.0 102920
11 мая, вт
вт1100:00+6всв35790 0.0 103075
03:00+5св38820 0.0 1030133
06:00+5св311801 0.0 1030247
09:00+12всв511580 0.0 1029662
12:00+16всв68464 0.0 1028976
15:00+18в565359 0.0 10271080
18:00+17в476597 0.0 1027745
21:00+11всв358346 0.0 102781